Year,Month,Day,Hour,Minute,Value (Times are PST for temperature in C)
2016,02,29,00,00,4.10
2016,02,29,00,01,4.10
2016,02,29,00,02,4.10
2016,02,29,00,03,4.10
2016,02,29,00,04,4.10
2016,02,29,00,05,4.10
2016,02,29,00,06,4.10
2016,02,29,00,07,4.10
2016,02,29,00,08,4.10
2016,02,29,00,09,4.10
2016,02,29,00,10,4.10
2016,02,29,00,11,4.10
2016,02,29,00,12,4.10
2016,02,29,00,13,4.10
2016,02,29,00,14,4.10
2016,02,29,00,15,4.10
2016,02,29,00,16,4.10
2016,02,29,00,17,4.10
2016,02,29,00,18,4.10
2016,02,29,00,19,4.10
2016,02,29,00,20,4.10
2016,02,29,00,21,4.10
2016,02,29,00,22,4.10
2016,02,29,00,23,4.10
2016,02,29,00,24,4.10
2016,02,29,00,25,4.10
2016,02,29,00,26,4.10
2016,02,29,00,27,4.10
2016,02,29,00,28,4.00
2016,02,29,00,29,4.00
2016,02,29,00,30,4.00
2016,02,29,00,31,4.00
2016,02,29,00,32,4.00
2016,02,29,00,33,4.00
2016,02,29,00,34,4.00
2016,02,29,00,35,4.00
2016,02,29,00,36,4.00
2016,02,29,00,37,4.00
2016,02,29,00,38,4.10
2016,02,29,00,39,4.10
2016,02,29,00,40,4.10
2016,02,29,00,41,4.10
2016,02,29,00,42,4.10
2016,02,29,00,43,4.10
2016,02,29,00,44,4.10
2016,02,29,00,45,4.20
2016,02,29,00,46,4.10
2016,02,29,00,47,4.20
2016,02,29,00,48,4.20
2016,02,29,00,49,4.10
2016,02,29,00,50,4.10
2016,02,29,00,51,4.10
2016,02,29,00,52,4.10
2016,02,29,00,53,4.10
2016,02,29,00,54,4.10
2016,02,29,00,55,4.10
2016,02,29,00,56,4.10
2016,02,29,00,57,4.10
2016,02,29,00,58,4.10
2016,02,29,00,59,4.10
2016,02,29,01,00,4.10
2016,02,29,01,01,4.10
2016,02,29,01,02,4.10
2016,02,29,01,03,4.10
2016,02,29,01,04,4.10
2016,02,29,01,05,4.10
2016,02,29,01,06,4.10
2016,02,29,01,07,4.10
2016,02,29,01,08,4.10
2016,02,29,01,09,4.10
2016,02,29,01,10,4.10
2016,02,29,01,11,4.10
2016,02,29,01,12,4.10
2016,02,29,01,13,4.10
2016,02,29,01,14,4.10
2016,02,29,01,15,4.10
2016,02,29,01,16,4.10
2016,02,29,01,17,4.10
2016,02,29,01,18,4.10
2016,02,29,01,19,4.10
2016,02,29,01,20,4.10
2016,02,29,01,21,4.10
2016,02,29,01,22,4.10
2016,02,29,01,23,4.10
2016,02,29,01,24,4.10
2016,02,29,01,25,4.10
2016,02,29,01,26,4.10
2016,02,29,01,27,4.10
2016,02,29,01,28,4.10
2016,02,29,01,29,4.10
2016,02,29,01,30,4.10
2016,02,29,01,31,4.10
2016,02,29,01,32,4.10
2016,02,29,01,33,4.20
2016,02,29,01,34,4.10
2016,02,29,01,35,4.10
2016,02,29,01,36,4.20
2016,02,29,01,37,4.10
2016,02,29,01,38,4.20
2016,02,29,01,39,4.20
2016,02,29,01,40,4.10
2016,02,29,01,41,4.20
2016,02,29,01,42,4.20
2016,02,29,01,43,4.10
2016,02,29,01,44,4.20
2016,02,29,01,45,4.20
2016,02,29,01,46,4.20
2016,02,29,01,47,4.10
2016,02,29,01,48,4.20
2016,02,29,01,49,4.20
2016,02,29,01,50,4.10
2016,02,29,01,51,4.10
2016,02,29,01,52,4.10
2016,02,29,01,53,4.10
2016,02,29,01,54,4.10
2016,02,29,01,55,4.10
2016,02,29,01,56,4.10
2016,02,29,01,57,4.10
2016,02,29,01,58,4.10
2016,02,29,01,59,4.10
2016,02,29,02,00,4.10
2016,02,29,02,01,4.10
2016,02,29,02,02,4.10
2016,02,29,02,03,4.10
2016,02,29,02,04,4.10
2016,02,29,02,05,4.00
2016,02,29,02,06,4.00
2016,02,29,02,07,4.00
2016,02,29,02,08,4.00
2016,02,29,02,09,4.00
2016,02,29,02,10,4.00
2016,02,29,02,11,4.00
2016,02,29,02,12,4.00
2016,02,29,02,13,4.00
2016,02,29,02,14,4.00
2016,02,29,02,15,4.00
2016,02,29,02,16,4.00
2016,02,29,02,17,4.00
2016,02,29,02,18,4.00
2016,02,29,02,19,4.00
2016,02,29,02,20,4.00
2016,02,29,02,21,4.00
2016,02,29,02,22,4.00
2016,02,29,02,23,4.00
2016,02,29,02,24,3.90
2016,02,29,02,25,3.90
2016,02,29,02,26,3.90
2016,02,29,02,27,3.90
2016,02,29,02,28,3.90
2016,02,29,02,29,3.90
2016,02,29,02,30,3.90
2016,02,29,02,31,3.90
2016,02,29,02,32,3.90
2016,02,29,02,33,3.90
2016,02,29,02,34,3.90
2016,02,29,02,35,3.90
2016,02,29,02,36,3.90
2016,02,29,02,37,3.90
2016,02,29,02,38,3.90
2016,02,29,02,39,3.90
2016,02,29,02,40,3.90
2016,02,29,02,41,3.90
2016,02,29,02,42,3.90
2016,02,29,02,43,3.90
2016,02,29,02,44,3.90
2016,02,29,02,45,3.90
2016,02,29,02,46,3.90
2016,02,29,02,47,3.90
2016,02,29,02,48,3.80
2016,02,29,02,49,3.80
2016,02,29,02,50,3.80
2016,02,29,02,51,3.80
2016,02,29,02,52,3.80
2016,02,29,02,53,3.80
2016,02,29,02,54,3.70
2016,02,29,02,55,3.70
2016,02,29,02,56,3.70
2016,02,29,02,57,3.70
2016,02,29,02,58,3.60
2016,02,29,02,59,3.60
2016,02,29,03,00,3.60
2016,02,29,03,01,3.60
2016,02,29,03,02,3.60
2016,02,29,03,03,3.60
2016,02,29,03,04,3.60
2016,02,29,03,05,3.60
2016,02,29,03,06,3.60
2016,02,29,03,07,3.50
2016,02,29,03,08,3.50
2016,02,29,03,09,3.50
2016,02,29,03,10,3.50
2016,02,29,03,11,3.50
2016,02,29,03,12,3.50
2016,02,29,03,13,3.40
2016,02,29,03,14,3.40
2016,02,29,03,15,3.40
2016,02,29,03,16,3.40
2016,02,29,03,17,3.40
2016,02,29,03,18,3.40
2016,02,29,03,19,3.40
2016,02,29,03,20,3.40
2016,02,29,03,21,3.40
2016,02,29,03,22,3.40
2016,02,29,03,23,3.40
2016,02,29,03,24,3.40
2016,02,29,03,25,3.40
2016,02,29,03,26,3.40
2016,02,29,03,27,3.40
2016,02,29,03,28,3.40
2016,02,29,03,29,3.40
2016,02,29,03,30,3.40
2016,02,29,03,31,3.30
2016,02,29,03,32,3.30
2016,02,29,03,33,3.30
2016,02,29,03,34,3.30
2016,02,29,03,35,3.30
2016,02,29,03,36,3.30
2016,02,29,03,37,3.30
2016,02,29,03,38,3.30
2016,02,29,03,39,3.30
2016,02,29,03,40,3.30
2016,02,29,03,41,3.30
2016,02,29,03,42,3.30
2016,02,29,03,43,3.30
2016,02,29,03,44,3.30
2016,02,29,03,45,3.20
2016,02,29,03,46,3.20
2016,02,29,03,47,3.20
2016,02,29,03,48,3.20
2016,02,29,03,49,3.20
2016,02,29,03,50,3.20
2016,02,29,03,51,3.20
2016,02,29,03,52,3.10
2016,02,29,03,53,3.10
2016,02,29,03,54,3.10
2016,02,29,03,55,3.10
2016,02,29,03,56,3.10
2016,02,29,03,57,3.10
2016,02,29,03,58,3.00
2016,02,29,03,59,3.00
2016,02,29,04,00,3.00
2016,02,29,04,01,3.00
2016,02,29,04,02,3.00
2016,02,29,04,03,2.90
2016,02,29,04,04,2.90
2016,02,29,04,05,2.90
2016,02,29,04,06,3.00
2016,02,29,04,07,3.00
2016,02,29,04,09,3.00
2016,02,29,04,10,3.00
2016,02,29,04,11,3.00
2016,02,29,04,12,3.00
2016,02,29,04,13,3.00
2016,02,29,04,14,3.00
2016,02,29,04,15,3.00
2016,02,29,04,16,3.00
2016,02,29,04,17,3.00
2016,02,29,04,18,3.00
2016,02,29,04,19,3.10
2016,02,29,04,20,3.10
2016,02,29,04,21,3.10
2016,02,29,04,22,3.10
2016,02,29,04,23,3.10
2016,02,29,04,24,3.10
2016,02,29,04,25,3.10
2016,02,29,04,26,3.10
2016,02,29,04,27,3.10
2016,02,29,04,28,3.10
2016,02,29,04,29,3.10
2016,02,29,04,30,3.10
2016,02,29,04,31,3.10
2016,02,29,04,32,3.10
2016,02,29,04,33,3.10
2016,02,29,04,34,3.10
2016,02,29,04,35,3.20
2016,02,29,04,36,3.20
2016,02,29,04,37,3.20
2016,02,29,04,38,3.20
2016,02,29,04,39,3.20
2016,02,29,04,40,3.20
2016,02,29,04,41,3.20
2016,02,29,04,42,3.20
2016,02,29,04,43,3.20
2016,02,29,04,44,3.20
2016,02,29,04,45,3.20
2016,02,29,04,46,3.20
2016,02,29,04,47,3.20
2016,02,29,04,48,3.20
2016,02,29,04,49,3.20
2016,02,29,04,50,3.20
2016,02,29,04,51,3.20
2016,02,29,04,52,3.20
2016,02,29,04,53,3.20
2016,02,29,04,54,3.20
2016,02,29,04,55,3.20
2016,02,29,04,56,3.30
2016,02,29,04,57,3.30
2016,02,29,04,58,3.30
2016,02,29,04,59,3.30
2016,02,29,05,00,3.30
2016,02,29,05,01,3.30
2016,02,29,05,02,3.30
2016,02,29,05,03,3.30
2016,02,29,05,04,3.30
2016,02,29,05,05,3.30
2016,02,29,05,06,3.30
2016,02,29,05,07,3.30
2016,02,29,05,08,3.30
2016,02,29,05,09,3.30
2016,02,29,05,10,3.30
2016,02,29,05,11,3.30
2016,02,29,05,12,3.30
2016,02,29,05,13,3.30
2016,02,29,05,14,3.30
2016,02,29,05,15,3.30
2016,02,29,05,16,3.30
2016,02,29,05,17,3.30
2016,02,29,05,18,3.30
2016,02,29,05,19,3.30
2016,02,29,05,20,3.30
2016,02,29,05,21,3.30
2016,02,29,05,22,3.30
2016,02,29,05,23,3.30
2016,02,29,05,24,3.30
2016,02,29,05,25,3.30
2016,02,29,05,26,3.20
2016,02,29,05,27,3.20
2016,02,29,05,28,3.20
2016,02,29,05,29,3.20
2016,02,29,05,30,3.20
2016,02,29,05,31,3.20
2016,02,29,05,32,3.20
2016,02,29,05,33,3.20
2016,02,29,05,34,3.20
2016,02,29,05,35,3.20
2016,02,29,05,36,3.20
2016,02,29,05,37,3.20
2016,02,29,05,38,3.20
2016,02,29,05,39,3.20
2016,02,29,05,40,3.20
2016,02,29,05,41,3.20
2016,02,29,05,42,3.20
2016,02,29,05,43,3.20
2016,02,29,05,44,3.20
2016,02,29,05,45,3.20
2016,02,29,05,46,3.20
2016,02,29,05,47,3.20
2016,02,29,05,48,3.20
2016,02,29,05,49,3.20
2016,02,29,05,50,3.20
2016,02,29,05,51,3.20
2016,02,29,05,52,3.20
2016,02,29,05,53,3.20
2016,02,29,05,54,3.20
2016,02,29,05,55,3.20
2016,02,29,05,56,3.20
2016,02,29,05,57,3.20
2016,02,29,05,58,3.10
2016,02,29,05,59,3.10
2016,02,29,06,00,3.10
2016,02,29,06,01,3.10
2016,02,29,06,02,3.10
2016,02,29,06,03,3.10
2016,02,29,06,04,3.10
2016,02,29,06,05,3.00
2016,02,29,06,06,3.00
2016,02,29,06,07,3.00
2016,02,29,06,08,3.00
2016,02,29,06,09,3.00
2016,02,29,06,10,3.00
2016,02,29,06,11,3.00
2016,02,29,06,12,3.00
2016,02,29,06,13,3.00
2016,02,29,06,14,3.00
2016,02,29,06,15,3.00
2016,02,29,06,16,3.00
2016,02,29,06,17,3.00
2016,02,29,06,18,3.00
2016,02,29,06,19,3.00
2016,02,29,06,20,3.00
2016,02,29,06,21,3.00
2016,02,29,06,22,3.00
2016,02,29,06,23,3.00
2016,02,29,06,24,3.00
2016,02,29,06,25,3.00
2016,02,29,06,26,3.00
2016,02,29,06,27,3.00
2016,02,29,06,28,3.00
2016,02,29,06,29,3.00
2016,02,29,06,30,2.90
2016,02,29,06,31,2.90
2016,02,29,06,32,2.90
2016,02,29,06,33,2.90
2016,02,29,06,34,2.90
2016,02,29,06,35,2.90
2016,02,29,06,36,2.90
2016,02,29,06,37,2.90
2016,02,29,06,38,2.90
2016,02,29,06,39,2.90
2016,02,29,06,40,2.90
2016,02,29,06,41,2.80
2016,02,29,06,42,2.80
2016,02,29,06,43,2.80
2016,02,29,06,44,2.80
2016,02,29,06,45,2.80
2016,02,29,06,46,2.80
2016,02,29,06,47,2.80
2016,02,29,06,48,2.80
2016,02,29,06,49,2.80
2016,02,29,06,50,2.80
2016,02,29,06,51,2.80
2016,02,29,06,52,2.80
2016,02,29,06,53,2.80
2016,02,29,06,54,2.80
2016,02,29,06,55,2.80
2016,02,29,06,56,2.80
2016,02,29,06,57,2.80
2016,02,29,06,58,2.80
2016,02,29,06,59,2.80
2016,02,29,07,00,2.80
2016,02,29,07,01,2.80
2016,02,29,07,02,2.80
2016,02,29,07,03,2.80
2016,02,29,07,04,2.80
2016,02,29,07,05,2.90
2016,02,29,07,06,2.80
2016,02,29,07,07,2.80
2016,02,29,07,08,2.80
2016,02,29,07,09,2.80
2016,02,29,07,10,2.80
2016,02,29,07,11,2.80
2016,02,29,07,12,2.80
2016,02,29,07,13,2.80
2016,02,29,07,14,2.80
2016,02,29,07,15,2.80
2016,02,29,07,16,2.70
2016,02,29,07,17,2.70
2016,02,29,07,18,2.70
2016,02,29,07,19,2.70
2016,02,29,07,20,2.70
2016,02,29,07,21,2.70
2016,02,29,07,22,2.70
2016,02,29,07,23,2.70
2016,02,29,07,24,2.70
2016,02,29,07,25,2.70
2016,02,29,07,26,2.70
2016,02,29,07,27,2.70
2016,02,29,07,28,2.70
2016,02,29,07,29,2.60
2016,02,29,07,30,2.60
2016,02,29,07,31,2.60
2016,02,29,07,32,2.60
2016,02,29,07,33,2.50
2016,02,29,07,34,2.50
2016,02,29,07,35,2.50
2016,02,29,07,36,2.50
2016,02,29,07,37,2.40
2016,02,29,07,38,2.40
2016,02,29,07,39,2.40
2016,02,29,07,40,2.40
2016,02,29,07,41,2.40
2016,02,29,07,42,2.40
2016,02,29,07,43,2.40
2016,02,29,07,44,2.40
2016,02,29,07,45,2.40
2016,02,29,07,46,2.40
2016,02,29,07,47,2.40
2016,02,29,07,48,2.40
2016,02,29,07,49,2.40
2016,02,29,07,50,2.40
2016,02,29,07,51,2.40
2016,02,29,07,52,2.40
2016,02,29,07,53,2.40
2016,02,29,07,54,2.40
2016,02,29,07,55,2.40
2016,02,29,07,56,2.40
2016,02,29,07,57,2.40
2016,02,29,07,58,2.40
2016,02,29,07,59,2.40
2016,02,29,08,00,2.40
2016,02,29,08,01,2.40
2016,02,29,08,02,2.40
2016,02,29,08,03,2.40
2016,02,29,08,04,2.40
2016,02,29,08,05,2.30
2016,02,29,08,06,2.30
2016,02,29,08,07,2.30
2016,02,29,08,08,2.30
2016,02,29,08,09,2.30
2016,02,29,08,10,2.30
2016,02,29,08,11,2.40
2016,02,29,08,12,2.40
2016,02,29,08,13,2.30
2016,02,29,08,14,2.30
2016,02,29,08,15,2.30
2016,02,29,08,16,2.30
2016,02,29,08,17,2.40
2016,02,29,08,18,2.40
2016,02,29,08,19,2.40
2016,02,29,08,20,2.40
2016,02,29,08,21,2.40
2016,02,29,08,22,2.40
2016,02,29,08,23,2.50
2016,02,29,08,24,2.50
2016,02,29,08,25,2.50
2016,02,29,08,26,2.50
2016,02,29,08,27,2.50
2016,02,29,08,28,2.60
2016,02,29,08,29,2.60
2016,02,29,08,30,2.60
2016,02,29,08,31,2.60
2016,02,29,08,32,2.60
2016,02,29,08,33,2.60
2016,02,29,08,34,2.60
2016,02,29,08,35,2.60
2016,02,29,08,36,2.60
2016,02,29,08,37,2.60
2016,02,29,08,38,2.60
2016,02,29,08,39,2.60
2016,02,29,08,40,2.60
2016,02,29,08,41,2.60
2016,02,29,08,42,2.60
2016,02,29,08,43,2.60
2016,02,29,08,44,2.60
2016,02,29,08,45,2.70
2016,02,29,08,46,2.70
2016,02,29,08,47,2.70
2016,02,29,08,48,2.70
2016,02,29,08,49,2.70
2016,02,29,08,50,2.70
2016,02,29,08,51,2.70
2016,02,29,08,52,2.70
2016,02,29,08,53,2.70
2016,02,29,08,54,2.70
2016,02,29,08,55,2.70
2016,02,29,08,56,2.80
2016,02,29,08,57,2.80
2016,02,29,08,58,2.80
2016,02,29,08,59,2.80
2016,02,29,09,00,2.80
2016,02,29,09,01,2.90
2016,02,29,09,02,2.90
2016,02,29,09,03,2.90
2016,02,29,09,04,2.90
2016,02,29,09,05,3.00
2016,02,29,09,06,3.00
2016,02,29,09,07,3.00
2016,02,29,09,08,3.10
2016,02,29,09,09,3.10
2016,02,29,09,10,3.10
2016,02,29,09,11,3.20
2016,02,29,09,12,3.20
2016,02,29,09,13,3.20
2016,02,29,09,14,3.30
2016,02,29,09,15,3.30
2016,02,29,09,16,3.30
2016,02,29,09,17,3.40
2016,02,29,09,18,3.40
2016,02,29,09,19,3.50
2016,02,29,09,20,3.50
2016,02,29,09,21,3.60
2016,02,29,09,22,3.60
2016,02,29,09,23,3.70
2016,02,29,09,24,3.70
2016,02,29,09,25,3.80
2016,02,29,09,26,3.80
2016,02,29,09,27,3.80
2016,02,29,09,28,3.80
2016,02,29,09,29,3.80
2016,02,29,09,30,3.90
2016,02,29,09,31,3.90
2016,02,29,09,32,4.00
2016,02,29,09,33,4.00
2016,02,29,09,34,4.10
2016,02,29,09,35,4.10
2016,02,29,09,36,4.10
2016,02,29,09,37,4.20
2016,02,29,09,38,4.20
2016,02,29,09,39,4.20
2016,02,29,09,40,4.20
2016,02,29,09,41,4.30
2016,02,29,09,42,4.30
2016,02,29,09,43,4.30
2016,02,29,09,44,4.30
2016,02,29,09,45,4.30
2016,02,29,09,46,4.30
2016,02,29,09,47,4.30
2016,02,29,09,48,4.30
2016,02,29,09,49,4.30
2016,02,29,09,50,4.40
2016,02,29,09,51,4.40
2016,02,29,09,52,4.40
2016,02,29,09,53,4.30
2016,02,29,09,54,4.40
2016,02,29,09,55,4.40
2016,02,29,09,56,4.40
2016,02,29,09,57,4.40
2016,02,29,09,58,4.40
2016,02,29,09,59,4.40
2016,02,29,10,00,4.50
2016,02,29,10,01,4.50
2016,02,29,10,02,4.60
2016,02,29,10,03,4.60
2016,02,29,10,04,4.60
2016,02,29,10,05,4.70
2016,02,29,10,06,4.70
2016,02,29,10,07,4.70
2016,02,29,10,08,4.80
2016,02,29,10,09,4.80
2016,02,29,10,10,4.80
2016,02,29,10,11,4.80
2016,02,29,10,12,4.80
2016,02,29,10,13,4.80
2016,02,29,10,14,4.80
2016,02,29,10,15,4.80
2016,02,29,10,16,4.80
2016,02,29,10,17,4.80
2016,02,29,10,18,4.80
2016,02,29,10,19,4.80
2016,02,29,10,20,4.80
2016,02,29,10,21,4.80
2016,02,29,10,22,4.80
2016,02,29,10,23,4.90
2016,02,29,10,24,4.90
2016,02,29,10,25,5.00
2016,02,29,10,26,5.00
2016,02,29,10,27,5.10
2016,02,29,10,28,5.10
2016,02,29,10,29,5.10
2016,02,29,10,30,5.20
2016,02,29,10,31,5.20
2016,02,29,10,32,5.20
2016,02,29,10,33,5.20
2016,02,29,10,34,5.20
2016,02,29,10,35,5.30
2016,02,29,10,36,5.30
2016,02,29,10,37,5.30
2016,02,29,10,38,5.40
2016,02,29,10,39,5.40
2016,02,29,10,40,5.40
2016,02,29,10,41,5.40
2016,02,29,10,42,5.50
2016,02,29,10,43,5.50
2016,02,29,10,44,5.60
2016,02,29,10,45,5.60
2016,02,29,10,46,5.60
2016,02,29,10,47,5.70
2016,02,29,10,48,5.70
2016,02,29,10,49,5.70
2016,02,29,10,50,5.70
2016,02,29,10,51,5.80
2016,02,29,10,52,5.80
2016,02,29,10,53,5.80
2016,02,29,10,54,5.80
2016,02,29,10,55,5.80
2016,02,29,10,56,5.90
2016,02,29,10,57,5.90
2016,02,29,10,58,5.90
2016,02,29,10,59,5.90
2016,02,29,11,00,5.90
2016,02,29,11,01,6.00
2016,02,29,11,02,6.00
2016,02,29,11,03,6.00
2016,02,29,11,04,6.10
2016,02,29,11,05,6.10
2016,02,29,11,06,6.10
2016,02,29,11,07,6.10
2016,02,29,11,08,6.10
2016,02,29,11,09,6.10
2016,02,29,11,10,6.10
2016,02,29,11,11,6.20
2016,02,29,11,12,6.20
2016,02,29,11,13,6.20
2016,02,29,11,14,6.20
2016,02,29,11,15,6.20
2016,02,29,11,16,6.20
2016,02,29,11,17,6.20
2016,02,29,11,18,6.20
2016,02,29,11,19,6.20
2016,02,29,11,20,6.20
2016,02,29,11,21,6.20
2016,02,29,11,22,6.30
2016,02,29,11,23,6.30
2016,02,29,11,24,6.30
2016,02,29,11,25,6.30
2016,02,29,11,26,6.30
2016,02,29,11,27,6.40
2016,02,29,11,28,6.40
2016,02,29,11,29,6.40
2016,02,29,11,30,6.40
2016,02,29,11,31,6.40
2016,02,29,11,32,6.40
2016,02,29,11,33,6.50
2016,02,29,11,34,6.50
2016,02,29,11,35,6.50
2016,02,29,11,36,6.50
2016,02,29,11,37,6.60
2016,02,29,11,38,6.60
2016,02,29,11,39,6.60
2016,02,29,11,40,6.60
2016,02,29,11,41,6.60
2016,02,29,11,42,6.70
2016,02,29,11,43,6.70
2016,02,29,11,44,6.70
2016,02,29,11,45,6.70
2016,02,29,11,46,6.70
2016,02,29,11,47,6.70
2016,02,29,11,48,6.80
2016,02,29,11,49,6.80
2016,02,29,11,50,6.80
2016,02,29,11,51,6.80
2016,02,29,11,52,6.90
2016,02,29,11,53,6.90
2016,02,29,11,54,6.90
2016,02,29,11,55,7.00
2016,02,29,11,56,7.00
2016,02,29,11,57,7.10
2016,02,29,11,58,7.10
2016,02,29,11,59,7.10
2016,02,29,12,00,7.10
2016,02,29,12,01,7.10
2016,02,29,12,02,7.10
2016,02,29,12,03,7.10
2016,02,29,12,04,7.10
2016,02,29,12,05,7.20
2016,02,29,12,06,7.20
2016,02,29,12,07,7.20
2016,02,29,12,08,7.20
2016,02,29,12,09,7.20
2016,02,29,12,10,7.20
2016,02,29,12,11,7.30
2016,02,29,12,12,7.30
2016,02,29,12,13,7.30
2016,02,29,12,14,7.30
2016,02,29,12,15,7.40
2016,02,29,12,16,7.40
2016,02,29,12,17,7.40
2016,02,29,12,18,7.40
2016,02,29,12,19,7.40
2016,02,29,12,20,7.40
2016,02,29,12,21,7.40
2016,02,29,12,22,7.50
2016,02,29,12,23,7.50
2016,02,29,12,24,7.40
2016,02,29,12,25,7.40
2016,02,29,12,26,7.50
2016,02,29,12,27,7.50
2016,02,29,12,28,7.50
2016,02,29,12,29,7.50
2016,02,29,12,30,7.60
2016,02,29,12,31,7.60
2016,02,29,12,32,7.60
2016,02,29,12,33,7.60
2016,02,29,12,34,7.60
2016,02,29,12,35,7.60
2016,02,29,12,36,7.60
2016,02,29,12,37,7.70
2016,02,29,12,38,7.70
2016,02,29,12,39,7.70
2016,02,29,12,40,7.70
2016,02,29,12,41,7.70
2016,02,29,12,42,7.70
2016,02,29,12,43,7.70
2016,02,29,12,44,7.70
2016,02,29,12,45,7.80
2016,02,29,12,46,7.80
2016,02,29,12,47,7.80
2016,02,29,12,48,7.80
2016,02,29,12,49,7.80
2016,02,29,12,50,7.80
2016,02,29,12,51,7.80
2016,02,29,12,52,7.80
2016,02,29,12,53,7.80
2016,02,29,12,54,7.80
2016,02,29,12,55,7.90
2016,02,29,12,56,7.90
2016,02,29,12,57,7.90
2016,02,29,12,58,7.90
2016,02,29,12,59,7.90
2016,02,29,13,00,7.90
2016,02,29,13,01,7.90
2016,02,29,13,02,7.90
2016,02,29,13,03,7.90
2016,02,29,13,04,8.00
2016,02,29,13,05,8.00
2016,02,29,13,06,8.00
2016,02,29,13,07,8.00
2016,02,29,13,08,8.00
2016,02,29,13,09,8.00
2016,02,29,13,10,8.00
2016,02,29,13,11,8.00
2016,02,29,13,12,8.00
2016,02,29,13,13,8.10
2016,02,29,13,14,8.10
2016,02,29,13,15,8.10
2016,02,29,13,16,8.10
2016,02,29,13,17,8.10
2016,02,29,13,18,8.20
2016,02,29,13,19,8.20
2016,02,29,13,20,8.20
2016,02,29,13,21,8.20
2016,02,29,13,22,8.20
2016,02,29,13,23,8.20
2016,02,29,13,24,8.10
2016,02,29,13,25,8.10
2016,02,29,13,26,8.10
2016,02,29,13,27,8.10
2016,02,29,13,28,8.10
2016,02,29,13,29,8.10
2016,02,29,13,30,8.10
2016,02,29,13,31,8.10
2016,02,29,13,32,8.10
2016,02,29,13,33,8.10
2016,02,29,13,34,8.10
2016,02,29,13,35,8.10
2016,02,29,13,36,8.10
2016,02,29,13,37,8.00
2016,02,29,13,38,8.00
2016,02,29,13,39,8.00
2016,02,29,13,40,7.90
2016,02,29,13,41,7.90
2016,02,29,13,42,7.90
2016,02,29,13,43,7.80
2016,02,29,13,44,7.80
2016,02,29,13,45,7.80
2016,02,29,13,46,7.80
2016,02,29,13,47,7.80
2016,02,29,13,48,7.80
2016,02,29,13,49,7.80
2016,02,29,13,50,7.80
2016,02,29,13,51,7.80
2016,02,29,13,52,7.80
2016,02,29,13,53,7.80
2016,02,29,13,54,7.80
2016,02,29,13,55,7.80
2016,02,29,13,56,7.80
2016,02,29,13,57,7.80
2016,02,29,13,58,7.90
2016,02,29,13,59,7.90
2016,02,29,14,00,7.90
2016,02,29,14,01,7.90
2016,02,29,14,02,7.90
2016,02,29,14,03,7.90
2016,02,29,14,04,7.90
2016,02,29,14,05,8.00
2016,02,29,14,06,8.00
2016,02,29,14,07,8.00
2016,02,29,14,08,8.00
2016,02,29,14,09,8.10
2016,02,29,14,10,8.10
2016,02,29,14,11,8.10
2016,02,29,14,12,8.10
2016,02,29,14,13,8.10
2016,02,29,14,14,8.10
2016,02,29,14,15,8.10
2016,02,29,14,16,8.20
2016,02,29,14,17,8.20
2016,02,29,14,18,8.20
2016,02,29,14,19,8.20
2016,02,29,14,20,8.30
2016,02,29,14,21,8.30
2016,02,29,14,22,8.30
2016,02,29,14,23,8.30
2016,02,29,14,24,8.30
2016,02,29,14,25,8.30
2016,02,29,14,26,8.30
2016,02,29,14,27,8.30
2016,02,29,14,28,8.30
2016,02,29,14,29,8.30
2016,02,29,14,30,8.30
2016,02,29,14,31,8.30
2016,02,29,14,32,8.30
2016,02,29,14,33,8.30
2016,02,29,14,34,8.30
2016,02,29,14,35,8.30
2016,02,29,14,36,8.30
2016,02,29,14,37,8.40
2016,02,29,14,38,8.40
2016,02,29,14,39,8.40
2016,02,29,14,40,8.40
2016,02,29,14,41,8.40
2016,02,29,14,42,8.40
2016,02,29,14,43,8.40
2016,02,29,14,44,8.50
2016,02,29,14,45,8.50
2016,02,29,14,46,8.50
2016,02,29,14,47,8.50
2016,02,29,14,48,8.50
2016,02,29,14,49,8.50
2016,02,29,14,50,8.50
2016,02,29,14,51,8.50
2016,02,29,14,52,8.50
2016,02,29,14,53,8.50
2016,02,29,14,54,8.50
2016,02,29,14,55,8.50
2016,02,29,14,56,8.50
2016,02,29,14,57,8.50
2016,02,29,14,58,8.50
2016,02,29,14,59,8.50
2016,02,29,15,00,8.50
2016,02,29,15,01,8.60
2016,02,29,15,02,8.60
2016,02,29,15,03,8.60
2016,02,29,15,04,8.60
2016,02,29,15,05,8.60
2016,02,29,15,06,8.60
2016,02,29,15,07,8.60
2016,02,29,15,08,8.50
2016,02,29,15,09,8.50
2016,02,29,15,10,8.40
2016,02,29,15,11,8.40
2016,02,29,15,12,8.40
2016,02,29,15,13,8.30
2016,02,29,15,14,8.30
2016,02,29,15,15,8.30
2016,02,29,15,16,8.30
2016,02,29,15,17,8.30
2016,02,29,15,18,8.30
2016,02,29,15,19,8.30
2016,02,29,15,20,8.30
2016,02,29,15,21,8.30
2016,02,29,15,22,8.30
2016,02,29,15,23,8.30
2016,02,29,15,24,8.30
2016,02,29,15,25,8.30
2016,02,29,15,26,8.30
2016,02,29,15,27,8.30
2016,02,29,15,28,8.40
2016,02,29,15,29,8.40
2016,02,29,15,30,8.40
2016,02,29,15,31,8.40
2016,02,29,15,32,8.40
2016,02,29,15,33,8.40
2016,02,29,15,34,8.40
2016,02,29,15,35,8.40
2016,02,29,15,36,8.40
2016,02,29,15,37,8.40
2016,02,29,15,38,8.30
2016,02,29,15,39,8.30
2016,02,29,15,40,8.30
2016,02,29,15,41,8.30
2016,02,29,15,42,8.30
2016,02,29,15,43,8.30
2016,02,29,15,44,8.30
2016,02,29,15,45,8.30
2016,02,29,15,46,8.30
2016,02,29,15,47,8.30
2016,02,29,15,48,8.30
2016,02,29,15,49,8.20
2016,02,29,15,50,8.20
2016,02,29,15,51,8.20
2016,02,29,15,52,8.20
2016,02,29,15,53,8.20
2016,02,29,15,54,8.20
2016,02,29,15,55,8.20
2016,02,29,15,56,8.20
2016,02,29,15,57,8.20
2016,02,29,15,58,8.20
2016,02,29,15,59,8.20
2016,02,29,16,00,8.20
2016,02,29,16,01,8.20
2016,02,29,16,02,8.20
2016,02,29,16,03,8.20
2016,02,29,16,04,8.20
2016,02,29,16,05,8.20
2016,02,29,16,06,8.20
2016,02,29,16,07,8.20
2016,02,29,16,08,8.20
2016,02,29,16,09,8.20
2016,02,29,16,10,8.20
2016,02,29,16,11,8.20
2016,02,29,16,12,8.20
2016,02,29,16,13,8.20
2016,02,29,16,14,8.20
2016,02,29,16,15,8.20
2016,02,29,16,16,8.10
2016,02,29,16,17,8.10
2016,02,29,16,18,8.10
2016,02,29,16,19,8.10
2016,02,29,16,20,8.10
2016,02,29,16,21,8.20
2016,02,29,16,22,8.20
2016,02,29,16,23,8.10
2016,02,29,16,24,8.10
2016,02,29,16,25,8.10
2016,02,29,16,26,8.10
2016,02,29,16,27,8.10
2016,02,29,16,28,8.10
2016,02,29,16,29,8.10
2016,02,29,16,30,8.10
2016,02,29,16,31,8.10
2016,02,29,16,32,8.10
2016,02,29,16,33,8.10
2016,02,29,16,34,8.10
2016,02,29,16,35,8.10
2016,02,29,16,36,8.10
2016,02,29,16,37,8.00
2016,02,29,16,38,8.00
2016,02,29,16,39,8.00
2016,02,29,16,40,8.00
2016,02,29,16,41,7.90
2016,02,29,16,42,7.90
2016,02,29,16,43,7.90
2016,02,29,16,44,7.90
2016,02,29,16,45,7.90
2016,02,29,16,46,7.90
2016,02,29,16,47,7.90
2016,02,29,16,48,7.90
2016,02,29,16,49,7.90
2016,02,29,16,50,7.90
2016,02,29,16,51,8.00
2016,02,29,16,52,8.00
2016,02,29,16,53,8.10
2016,02,29,16,54,8.10
2016,02,29,16,55,8.10
2016,02,29,16,56,8.10
2016,02,29,16,57,8.10
2016,02,29,16,58,8.10
2016,02,29,16,59,8.10
2016,02,29,17,00,8.10
2016,02,29,17,01,8.10
2016,02,29,17,02,8.10
2016,02,29,17,03,8.10
2016,02,29,17,04,8.10
2016,02,29,17,05,8.10
2016,02,29,17,06,8.10
2016,02,29,17,07,8.10
2016,02,29,17,08,8.10
2016,02,29,17,09,8.10
2016,02,29,17,10,8.10
2016,02,29,17,11,8.10
2016,02,29,17,12,8.10
2016,02,29,17,13,8.10
2016,02,29,17,14,8.10
2016,02,29,17,15,8.10
2016,02,29,17,16,8.10
2016,02,29,17,17,8.10
2016,02,29,17,18,8.10
2016,02,29,17,19,8.10
2016,02,29,17,20,8.10
2016,02,29,17,21,8.10
2016,02,29,17,22,8.10
2016,02,29,17,23,8.10
2016,02,29,17,24,8.10
2016,02,29,17,25,8.10
2016,02,29,17,26,8.10
2016,02,29,17,27,8.00
2016,02,29,17,28,8.00
2016,02,29,17,29,8.00
2016,02,29,17,30,7.90
2016,02,29,17,31,7.90
2016,02,29,17,32,7.90
2016,02,29,17,33,7.90
2016,02,29,17,34,7.90
2016,02,29,17,35,7.90
2016,02,29,17,36,7.90
2016,02,29,17,37,7.80
2016,02,29,17,38,7.80
2016,02,29,17,39,7.80
2016,02,29,17,40,7.80
2016,02,29,17,41,7.80
2016,02,29,17,42,7.80
2016,02,29,17,43,7.80
2016,02,29,17,44,7.80
2016,02,29,17,45,7.80
2016,02,29,17,46,7.80
2016,02,29,17,47,7.80
2016,02,29,17,48,7.90
2016,02,29,17,49,7.90
2016,02,29,17,50,7.90
2016,02,29,17,51,7.90
2016,02,29,17,52,8.00
2016,02,29,17,53,8.00
2016,02,29,17,54,8.00
2016,02,29,17,55,8.00
2016,02,29,17,56,8.00
2016,02,29,17,57,8.00
2016,02,29,17,58,8.00
2016,02,29,17,59,7.90
2016,02,29,18,00,7.90
2016,02,29,18,01,7.90
2016,02,29,18,02,7.90
2016,02,29,18,03,7.80
2016,02,29,18,04,7.80
2016,02,29,18,05,7.80
2016,02,29,18,06,7.80
2016,02,29,18,07,7.80